全球星 M073星 (GLOBALSTAR M073)

导读

GLOBALSTAR M073卫星隶属于美国主导的全球星(GlobalStar)低轨移动通信卫星系统,该系统由美国全球星公司运营,于2010年10月19日发射。 它运行在约1414千米高度的近地轨道,为南北纬70度以内区域提供数字语音、数据、短信等移动通信服务,可兼容地面网络漫游,弥补偏远地区、海洋等区域通信盲区,支撑全球无缝通信覆盖。

基本信息
目录编号:
37193
目录名称:
GLOBALSTAR M073
国际标识:
2010-054F
轨道中心:
EARTH
卫星名称:
全球星 M073星
卫星全名:
全球星 M073星 (GLOBALSTAR M073)
卫星状态:
在轨 (已飞行5807 天)
发射日期:
2010-10-19 UTC
国别 :
(GLOB)
星等 :
--
该卫星已列入 空间交会检测服务 Space Conjunction Data Service (SCDS) ,当前飞行风险评估等级: 无高风险
轨道信息
数据来源 国际轨道数据 AOE轨道数据
星历时间 2026-09-12T11:58:21+0800
4小时前
查看轨道信息
2026-09-09T23:00:00+0800
2天前
查看轨道信息
半长轴 7791.735km 7791.736km
偏心率 0.0000481 0.0000413
轨道倾角 52.005° 52.006°
近地点辐角 86.800° 74.447°
升交点赤经 159.531° 167.265°
平近点角 60.377° 42.552°
近地点 1413.223km 1413.277km
远地点 1413.973km 1413.921km
周期 114.080分钟 114.080分钟
每日圈数 12.622679 12.622677
详细信息
固有亮度:
5
最大亮度:
7.2
平衡模式:
三轴稳定
覆盖范围:
全球
运营商:
全球星公司
运营商所在国:
美国
使用方式:
暂无
卫星简介
全球星星座由48颗卫星加8颗备份星组成。这些卫星分布在8个倾角为52度的圆形轨道平面上,每个轨道平面6颗卫星,另有1 颗备用星。轨道高度约为1414km,传输时延和处理时延小于300ms,整个系统的覆盖区为南北纬70度以内的地区。该卫星已退役。
2D轨道图
3D轨道图
轨道高度分析图
轨道倾角分析图
轨道综合分析图
查看轨道综合分析图
交会数据列表
事件ID 空间交会对象 最接近时刻(TCA) 交会距离 交会风险概率(CRP) 交会风险指数(CRI) 操作
CDM_260914-070402-172803-719322
2026-09-14T
07:04:17+0000
1.332 km
极远距离
8.098564E-6 低风险 0.53
与全量物体交会距离演化趋势
与全量物体交会风险概率演化趋势